RH
7746 7966 8031 7818 7397 6998 6672 6408 6446 6593 6773 6890 6691 6445 6162 5956 5629 5217 4779 4371 4209 4304 4577 4930 4838 4568 4176 3737 3365 3202 3174 3247 3262 3159 3061 3045 3139 3239 3363 3536 3582 3510 3380 3199 3024 2941 2859 2715 2670 2648 2655 2787 3140 3564 4028 4438 5076 5745 6345 6773 6767 6784 6846 6859 6780 6705 6701 6838 7022
7878 7914 7803 7516 7161 6935 6761 6652 6782 6991 7197 7251 6991 6628 6268 6016 5643 5185 4743 4421 4416 4621 4890 5084 4775 4396 3941 3468 3148 3032 3054 3135 3183 3137 3061 3012 3104 3223 3355 3548 3657 3613 3410 3134 2923 2751 2636 2568 2624 2638 2676 2817 3192 3698 4234 4690 5187 5734 6144 6279 6180 6168 6209 6280 6310 6253 6202 6296 6404
7663 7611 7452 7236 7051 6982 6977 7002 7154 7380 7570 7544 7166 6751 6354 6009 5566 5116 4763 4582 4773 5024 5182 4987 4535 4112 3710 3321 3121 3060 3085 3157 3164 3143 3086 2995 3088 3254 3477 3654 3664 3528 3323 3152 2957 2678 2495 2522 2627 2691 2775 2946 3307 3799 4366 4901 5241 5594 5851 5912 5754 5767 5858 5970 6014 6079 6152 6207 6251
7629 7540 7423 7323 7247 7254 7291 7346 7540 7720 7785 7588 7201 6795 6394 6001 5498 5108 4915 4948 5255 5370 5215 4693 4215 3849 3573 3351 3258 3239 3251 3290 3231 3158 3054 2998 3176 3428 3671 3839 3745 3473 3209 3090 2877 2657 2550 2628 2735 2820 2926 3069 3415 3935 4502 5022 5270 5457 5578 5671 5601 5696 5868 6034 6166 6333 6491 6595 6617
7895 7731 7593 7501 7455 7475 7554 7713 7971 8043 7888 7519 7175 6791 6378 5896 5459 5257 5276 5501 5606 5390 4913 4323 3926 3703 3563 3470 3437 3426 3402 3363 3224 3106 3040 3087 3361 3654 3891 4026 3736 3371 3042 2949 2799 2715 2716 2834 2959 3066 3137 3253 3574 4077 4633 5132 5316 5423 5532 5710 5916 6115 6281 6359 6513 6713 6911 7107 7224
7734 7666 7628 7616 7685 7763 7881 8001 8155 8057 7776 7401 7084 6735 6320 5811 5560 5534 5677 5824 5532 4983 4379 3915 3763 3649 3596 3569 3605 3598 3527 3413 3178 3123 3200 3359 3701 3945 4050 3932 3474 3184 2987 2795 2773 2821 2944 3145 3312 3418 3466 3566 3863 4324 4873 5340 5484 5547 5699 5990 6477 6789 6950 7004 7027 7205 7415 7605 7638
7609 7647 7757 7867 7942 8020 8087 8116 8051 7868 7588 7235 6942 6598 6212 5863 5794 5802 5748 5533 4933 4345 3895 3697 3660 3660 3666 3649 3652 3632 3562 3434 3230 3181 3318 3639 3981 4113 4090 3870 3413 3177 3049 2891 2897 3023 3246 3520 3718 3807 3899 4027 4349 4788 5240 5619 5679 5759 5952 6296 6679 6951 7110 7225 7421 7627 7823 8030 8090
7869 7943 8060 8151 8212 8246 8224 8082 7854 7590 7310 7010 6718 6411 6138 5940 5791 5582 5249 4776 4202 3866 3714 3675 3658 3663 3691 3681 3602 3595 3576 3484 3382 3421 3565 3896 4159 4156 3988 3699 3266 3096 3040 2998 3091 3308 3621 3955 4115 4218 4349 4577 4951 5346 5718 5984 5976 6040 6216 6496 6668 6783 6940 7199 7488 7720 7965 8232 8246
8312 8368 8429 8450 8382 8231 8046 7802 7584 7343 7077 6796 6461 6204 5968 5694 5398 4997 4537 4102 3777 3673 3673 3679 3709 3681 3662 3723 3557 3516 3498 3487 3532 3662 3873 4129 4104 3923 3677 3434 3308 3208 3141 3136 3307 3631 4058 4500 4634 4709 4817 5101 5562 5953 6241 6413 6449 6470 6539 6730 6788 6865 6985 7182 7472 7774 8115 8436 8211
8503 8489 8432 8353 8120 7883 7650 7387 7243 7023 6723 6411 6041 5799 5527 5155 4760 4358 4017 3826 3683 3649 3688 3718 3734 3737 3732 3741 3503 3427 3430 3546 3699 3904 4096 4189 4062 3836 3629 3455 3359 3291 3253 3302 3600 4034 4566 5128 5384 5487 5566 5735 6223 6560 6776 6890 6915 6915 6914 7021 7109 7227 7367 7542 7731 7920 8076 8224 7826
8285 8221 8083 7901 7611 7361 7129 6945 6740 6464 6138 5758 5401 5094 4788 4470 4167 3965 3811 3756 3758 3774 3787 3787 3680 3621 3580 3535 3404 3402 3495 3703 4003 4189 4279 4189 3977 3812 3637 3465 3378 3350 3379 3517 3995 4605 5316 6102 6522 6690 6716 6665 6920 7118 7255 7322 7341 7295 7275 7352 7626 7830 7967 8016 8023 7944 7770 7517 7111
7715 7610 7382 7074 6819 6568 6376 6326 5952 5612 5310 4949 4638 4375 4150 3978 3868 3846 3854 3866 3915 3865 3796 3739 3641 3546 3484 3559 3573 3688 3877 4135 4216 4212 4166 4123 3884 3675 3507 3437 3416 3435 3553 3856 4574 5480 6455 7388 7745 7884 7920 7916 7713 7604 7590 7616 7601 7659 7784 7946 8156 8315 8380 8329 8158 7845 7450 6987 6652
6545 6318 6074 5849 5658 5474 5387 5427 5020 4747 4529 4325 4128 4002 3907 3832 3842 3904 3977 4024 3980 3887 3777 3692 3641 3579 3602 3748 3953 4174 4377 4491 4298 4197 4071 3912 3668 3512 3446 3432 3464 3536 3818 4443 5485 6673 7771 8458 8555 8602 8663 8823 8393 8092 7926 7840 7873 8098 8339 8543 8691 8673 8518 8228 7898 7496 7058 6662 6626
5410 5159 5000 4856 4723 4615 4546 4543 4395 4266 4173 4113 3981 3964 3991 3907 3991 4056 4116 4100 4002 3909 3810 3715 3863 3927 4004 4152 4320 4566 4707 4555 4313 4080 3849 3658 3502 3435 3425 3466 3466 3740 4349 5376 6687 7866 8698 9030 9048 9084 9145 9183 8890 8619 8370 8232 8319 8537 8742 8832 8830 8691 8368 7919 7536 7149 6853 6762 7017
5534 5344 5177 4959 4762 4604 4516 4430 4269 4199 4179 4118 4030 4070 4182 4222 4251 4257 4276 4293 4205 4063 3948 3981 4294 4535 4705 4772 4740 4683 4600 4429 4135 3850 3653 3468 3415 3409 3430 3424 3578 4229 5268 6615 7882 8635 9040 9245 9284 9292 9320 9309 9199 8987 8766 8630 8695 8776 8815 8800 8715 8509 8179 7782 7431 7177 7106 7293 7576
6845 6691 6378 5940 5522 5182 4912 4691 4432 4315 4259 4184 4126 4276 4487 4574 4529 4502 4524 4547 4555 4451 4404 4612 4729 5016 5271 5328 5095 4825 4522 4172 3884 3663 3496 3395 3380 3402 3431 3419 3971 5096 6474 7810 8646 8965 9073 9206 9230 9277 9331 9320 9252 9145 9045 8998 8940 8888 8810 8734 8576 8356 8098 7824 7578 7461 7487 7649 7730
7374 7228 6865 6249 5693 5301 5005 4754 4577 4450 4355 4329 4409 4611 4780 4764 4588 4599 4726 4940 5023 5006 5013 5159 5218 5379 5473 5440 5140 4768 4371 3988 3716 3518 3385 3332 3348 3376 3463 3665 4743 6155 7546 8560 8939 9030 9015 9098 9145 9249 9303 9281 9234 9217 9197 9171 9036 8923 8820 8674 8459 8260 8052 7822 7652 7605 7574 7529 7446
6827 6661 6249 5539 5130 4898 4770 4596 4565 4534 4532 4579 4803 4904 4904 4799 4668 4728 4976 5332 5420 5394 5381 5473 5431 5354 5255 5207 5024 4697 4299 3888 3594 3412 3304 3251 3264 3368 3668 4331 5704 7065 8208 8838 9016 9027 9004 9068 9109 9221 9287 9259 9237 9201 9180 9152 9069 8961 8837 8745 8448 8178 7907 7670 7520 7432 7341 7207 7074
6478 6134 5718 5272 4924 4832 4847 4727 4749 4805 4879 4912 5060 5109 5081 5029 5001 5050 5209 5541 5601 5516 5382 5287 5127 4938 4758 4710 4615 4390 4082 3755 3498 3345 3269 3195 3276 3550 4155 5237 6543 7701 8540 8980 9004 9046 9075 9102 9111 9203 9276 9270 9192 9108 9001 8952 8987 8932 8828 8634 8374 8077 7754 7430 7271 7152 7002 6806 6629
6048 5676 5389 5193 5101 5119 5109 5035 5026 5113 5214 5246 5284 5362 5416 5369 5288 5293 5378 5509 5483 5382 5196 4832 4658 4480 4296 4103 4033 3913 3755 3548 3383 3288 3259 3315 3679 4201 5005 6117 7120 7996 8680 9091 9024 9062 9107 9124 9124 9190 9276 9266 9141 8992 8798 8613 8647 8591 8473 8238 8001 7749 7481 7210 7004 6766 6510 6241 6029
5606 5396 5196 5044 5210 5273 5283 5263 5274 5320 5407 5470 5582 5654 5667 5598 5478 5409 5394 5373 5245 5085 4848 4487 4271 4041 3863 3718 3701 3620 3510 3366 3342 3397 3624 4044 4759 5426 6093 6812 7415 8084 8685 9124 9027 9045 9111 9137 9144 9199 9245 9204 9034 8859 8650 8390 8259 8027 7799 7629 7426 7230 7014 6802 6496 6203 5913 5670 5495
5337 5266 5213 5171 5286 5343 5393 5447 5482 5533 5598 5688 5757 5738 5679 5582 5446 5312 5167 5007 4784 4591 4360 4114 3902 3725 3648 3652 3627 3562 3479 3428 3615 4026 4657 5536 6416 7056 7468 7682 7785 8099 8524 8924 8929 8987 9065 9150 9185 9206 9193 9148 8957 8723 8439 8048 7829 7512 7188 7005 6818 6621 6391 6145 5873 5652 5450 5302 5218
5340 5350 5380 5390 5439 5496 5556 5630 5681 5738 5755 5746 5652 5517 5337 5149 4957 4752 4493 4189 3961 3854 3825 3768 3659 3661 3721 3749 3739 3728 3777 3908 4426 5249 6268 7348 8097 8543 8727 8696 8440 8343 8403 8560 8834 8980 9100 9210 9203 9135 9074 9009 8863 8633 8291 7806 7474 7082 6755 6476 6209 5990 5790 5614 5451 5346 5244 5154 5073
5487 5498 5516 5557 5588 5651 5702 5757 5764 5743 5632 5441 5066 4729 4441 4174 3915 3680 3474 3285 3246 3355 3584 3799 3863 3927 3988 4081 4150 4276 4514 4873 5754 6813 7880 8709 8993 9154 9212 9209 9004 8646 8351 8404 8740 8951 9103 9225 9168 9024 8896 8827 8769 8476 8066 7587 7150 6721 6337 5989 5737 5563 5465 5343 5243 5166 5054 4932 4807
5592 5572 5568 5564 5610 5604 5579 5443 5271 5080 4846 4554 4189 3848 3531 3269 3134 3038 3034 3091 3333 3693 4071 4384 4388 4450 4586 4792 4974 5216 5605 6204 7335 8263 8903 9168 9226 9248 9287 9315 9168 8763 8441 8539 8790 9017 9145 9171 9112 8990 8816 8673 8565 8316 7941 7393 6837 6348 5955 5660 5510 5394 5291 5189 5049 4915 4765 4627 4535
5601 5559 5538 5490 5431 5274 5045 4824 4624 4455 4271 4030 3695 3399 3187 3073 3202 3411 3682 3957 4369 4798 5110 5217 5189 5319 5565 5868 5968 6252 6840 7809 8630 9074 9245 9270 9287 9292 9292 9258 9096 8832 8659 8823 8996 9135 9196 9098 9118 9029 8850 8570 8410 8145 7737 7106 6496 6053 5732 5527 5390 5268 5124 4959 4787 4646 4527 4446 4429
5499 5468 5419 5301 5035 4776 4519 4284 4120 4017 3881 3754 3626 3576 3630 3811 4182 4584 5026 5463 5841 6137 6267 6116 6096 6191 6341 6510 6769 7362 8123 8920 9129 9226 9265 9228 9113 9144 9201 9141 8991 8890 8899 8986 8985 9035 9041 9040 9032 8952 8816 8602 8351 7907 7346 6678 6199 5868 5630 5449 5288 5124 4937 4755 4609 4496 4435 4443 4453
5245 5089 4937 4760 4489 4240 4024 3839 3788 3756 3790 3907 4249 4556 4852 5137 5542 5973 6424 6773 6982 7153 7200 7071 7212 7134 7017 7041 7715 8427 8974 9133 9199 9226 9209 9061 9057 9079 9079 9059 9004 9029 9036 8905 8839 8762 8773 8890 8794 8684 8532 8351 7913 7379 6804 6295 5969 5717 5521 5335 5167 4969 4780 4622 4524 4493 4507 4551 4561
4980 4745 4580 4410 4212 4032 3921 3878 3955 4089 4398 4933 5552 5957 6228 6368 6665 6990 7288 7537 7710 7787 7820 7865 8065 7854 7677 7994 8701 9021 9116 9166 9210 9232 9232 9209 9245 9234 9223 9203 9175 9085 8949 8785 8740 8674 8605 8607 8506 8357 8120 7815 7315 6820 6382 6015 5772 5565 5380 5199 5020 4843 4716 4622 4602 4620 4661 4693 4698
5505 5383 5345 5311 5125 4930 4790 4770 4890 5257 5777 6418 6627 6724 6815 6934 7188 7455 7710 7890 7872 7879 7907 7969 7865 7848 8120 8871 9110 9166 9177 9199 9237 9265 9292 9292 9259 9240 9234 9241 9157 8996 8866 8834 8785 8664 8478 8309 8096 7823 7474 7056 6621 6266 5941 5688 5474 5293 5130 4956 4846 4770 4731 4759 4780 4793 4805 4807 4782
6931 6918 6974 7082 6993 6685 6294 6019 6148 6491 6878 7119 7053 7074 7127 7170 7465 7694 7841 7837 7768 7801 7804 7760 7815 8237 8775 9161 9215 9237 9243 9276 9292 9277 9257 9221 9258 9247 9208 9188 9148 9051 8927 8754 8569 8367 8110 7827 7516 7170 6823 6488 6159 5845 5590 5385 5188 5050 4920 4820 4790 4770 4777 4798 4827 4824 4820 4780 4759
8067 8120 8196 8301 8357 8138 7687 7091 7082 7237 7443 7499 7518 7620 7709 7708 7888 7963 7950 7887 7870 7890 7937 7915 8345 8776 9095 9243 9259 9292 9303 9316 9279 9254 9217 9206 9173 9116 9057 8978 8913 8840 8697 8470 8182 7880 7569 7266 6932 6606 6283 5990 5780 5590 5426 5265 5140 5023 4955 4904 4885 4880 4890 4880 4852 4844 4832 4824 4788
8527 8537 8615 8754 8853 8723 8311 7651 7666 7800 7988 8094 8193 8328 8435 8438 8413 8321 8204 8139 8191 8230 8310 8489 8893 9091 9188 9298 9292 9284 9285 9276 9278 9250 9185 9117 9018 8939 8849 8739 8648 8554 8399 8140 7795 7468 7121 6823 6516 6227 5974 5744 5620 5532 5454 5350 5262 5199 5139 5126 5116 5134 5137 5131 5115 5104 5076 5054 5049
8909 8863 8865 8966 8988 8765 8392 8005 8111 8332 8551 8731 8816 8895 8954 8963 8757 8566 8480 8557 8647 8723 8813 8981 9124 9204 9270 9330 9322 9260 9191 9149 9177 9160 9109 8967 8831 8693 8553 8448 8321 8228 8066 7832 7494 7148 6838 6565 6310 6113 5910 5729 5632 5587 5543 5509 5474 5455 5440 5440 5448 5464 5473 5468 5451 5407 5382 5354 5318
9065 9024 8987 9018 8937 8751 8540 8418 8559 8751 8919 9014 9055 9099 9126 9153 8943 8795 8758 8921 8952 9009 9069 9138 9182 9248 9309 9341 9307 9191 9084 9011 9033 9007 8917 8776 8593 8438 8282 8195 8044 7905 7770 7590 7257 7009 6791 6601 6374 6180 5988 5860 5743 5691 5685 5698 5705 5727 5749 5762 5751 5729 5707 5657 5593 5540 5504 5461 5413
9086 9042 9034 9067 9012 8950 8879 8882 8934 9000 9060 9049 9091 9113 9155 9190 9068 8951 8895 9017 9034 9091 9127 9171 9226 9276 9309 9330 9265 9140 8985 8887 8898 8859 8752 8604 8410 8234 8073 7949 7786 7635 7473 7273 6977 6807 6672 6543 6392 6232 6080 5980 5893 5851 5840 5842 5822 5796 5798 5779 5748 5699 5652 5577 5479 5415 5384 5378 5348
9068 9024 9029 9079 9098 9129 9107 9071 9078 9095 9112 9120 9151 9190 9201 9223 9111 9020 8993 9067 9102 9144 9188 9210 9254 9270 9281 9256 9189 9061 8930 8834 8818 8789 8701 8534 8316 8096 7888 7721 7548 7358 7135 6925 6681 6538 6445 6371 6271 6177 6109 6054 5995 5948 5882 5789 5678 5598 5503 5454 5413 5406 5388 5346 5299 5213 5170 5167 5202
9035 9016 9032 9069 9113 9113 9085 9115 9128 9145 9153 9170 9190 9212 9214 9232 9164 9103 9102 9126 9193 9232 9265 9265 9292 9284 9241 9167 9070 8993 8924 8871 8779 8710 8673 8554 8326 8077 7804 7531 7288 7057 6855 6673 6535 6427 6341 6277 6223 6182 6141 6104 6034 5927 5796 5640 5482 5325 5207 5110 5084 5108 5135 5160 5144 5117 5082 5070 5131
9043 9010 9041 9059 9095 9089 9080 9118 9179 9190 9201 9206 9223 9247 9243 9195 9173 9174 9170 9179 9248 9276 9292 9303 9322 9279 9228 9149 9103 9060 9035 8924 8771 8677 8618 8536 8289 7997 7666 7308 7055 6879 6754 6627 6545 6458 6405 6343 6324 6298 6268 6200 6122 5995 5847 5699 5527 5350 5198 5074 4995 4995 5040 5063 5076 5097 5121 5137 5193
9057 9038 9033 9048 9073 9078 9095 9138 9204 9229 9240 9262 9284 9280 9237 9190 9185 9197 9223 9232 9270 9298 9309 9330 9322 9279 9254 9195 9170 9144 9085 8991 8855 8710 8557 8404 8153 7846 7507 7202 6991 6839 6748 6673 6626 6550 6480 6413 6385 6363 6335 6308 6232 6154 6069 5976 5824 5613 5399 5191 5098 5027 5034 5052 5077 5138 5199 5268 5355
9117 9098 9060 9047 9059 9056 9073 9145 9182 9196 9207 9259 9292 9284 9241 9202 9203 9229 9254 9293 9315 9309 9309 9298 9298 9267 9228 9194 9123 9078 9017 8972 8859 8654 8418 8136 7868 7604 7354 7146 6985 6856 6767 6709 6641 6596 6495 6405 6326 6289 6270 6241 6233 6242 6240 6249 6104 5848 5578 5305 5215 5157 5152 5176 5200 5244 5311 5391 5510